Euro IV — IQNH — position and weather

sailwx.info

Track history (hours):
 
Tides and Currents Weather Stations Pressure Air Temp Water Temp Dewpoint Dewpoint Depression Visibility Wind Speed Wind Dir Waves Ship Positions

Euro IV

Last reported at 2014-Sep-01 16:33 UTC. Time now 2014-Sep-01 21:11 UTC.
Position N 44°06' E 009°50'.

Length 25 m; draft 1.3 m.

Type: Passenger vessel. MMSI: 247131500.

Date/timePositionNaut miles runAvg speedWind from/ knotsBaromVisibWave heightAir tempDewpointWater temp
2014-Sep-01 16:33N 44°06' E 009°50'3 3.1
2014-Sep-01 15:34N 44°03' E 009°50'0 0.0
2014-Sep-01 14:33N 44°03' E 009°50'4 3.7
2014-Sep-01 13:34N 44°04' E 009°45'6 6.1
2014-Sep-01 12:33N 44°09' E 009°39'0 0.0
2014-Sep-01 11:33N 44°09' E 009°39'0 0.0
2014-Sep-01 10:33N 44°09' E 009°39'0 0.1
2014-Sep-01 09:33N 44°09' E 009°39'10 9.7
2014-Sep-01 08:33N 44°03' E 009°50'3 3.1
2014-Sep-01 07:33N 44°06' E 009°50'0 0.0
2014-Sep-01 06:33N 44°06' E 009°50'0 0.0
2014-Aug-31 17:19N 44°06' E 009°50'4 5.2
2014-Aug-31 16:33N 44°05' E 009°44'5 5.0
2014-Aug-31 15:33N 44°09' E 009°39'4 4.4
2014-Aug-31 14:32N 44°06' E 009°44'8 7.8
2014-Aug-31 13:33N 44°04' E 009°54'0 0.1
2014-Aug-31 12:33N 44°04' E 009°54'0 0.0
2014-Aug-31 11:33N 44°04' E 009°55'3 3.2
2014-Aug-31 10:33N 44°03' E 009°51'1 1.1
2014-Aug-31 09:34N 44°04' E 009°51'2 2.3
2014-Aug-31 08:33N 44°06' E 009°50'0 0.0
2014-Aug-31 07:33N 44°06' E 009°50'3 0.2
2014-Aug-30 16:34N 44°03' E 009°52'3 3.4
2014-Aug-30 15:33N 44°06' E 009°50'4 4.0
2014-Aug-30 14:33N 44°02' E 009°51'1 1.5
2014-Aug-30 13:34N 44°04' E 009°51'1 1.5
2014-Aug-30 12:33N 44°02' E 009°51'4 4.0
2014-Aug-30 11:33N 44°06' E 009°50'0 0.0
2014-Aug-30 10:33N 44°06' E 009°50'0 0.0
2014-Aug-30 09:33N 44°06' E 009°50'2 2.5
2014-Aug-30 08:34N 44°04' E 009°51'2 1.7
2014-Aug-30 07:33N 44°02' E 009°51'4 3.9
2014-Aug-30 06:33N 44°06' E 009°50'4 0.3
2014-Aug-29 16:33N 44°02' E 009°51'4 4.0
2014-Aug-29 15:34N 44°06' E 009°50'4 4.0
2014-Aug-29 14:33N 44°02' E 009°51'1 1.1
2014-Aug-29 13:34N 44°03' E 009°52'1 0.7
2014-Aug-29 12:34N 44°03' E 009°52'4 1.8
2014-Aug-29 10:23N 44°06' E 009°50'0 0.2
2014-Aug-29 09:34N 44°06' E 009°50'3 3.3
2014-Aug-29 08:34N 44°03' E 009°52'3 0.2
2014-Aug-28 16:33N 44°06' E 009°50'5 4.4
2014-Aug-28 15:26N 44°06' E 009°43'3 3.9
2014-Aug-28 14:33N 44°09' E 009°39'3 3.4
2014-Aug-28 13:33N 44°06' E 009°43'3 3.4
2014-Aug-28 12:33N 44°09' E 009°39'0 0.0
2014-Aug-28 11:33N 44°09' E 009°39'1 0.5
2014-Aug-28 10:33N 44°08' E 009°40'1 0.8
2014-Aug-28 09:27N 44°08' E 009°41'1 1.6
2014-Aug-28 08:33N 44°09' E 009°39'2 2.3
2014-Aug-28 07:27N 44°07' E 009°42'7 8.2
2014-Aug-28 06:33N 44°04' E 009°51'3 0.1
2014-Aug-26 10:19N 44°06' E 009°50'0 0.0
2014-Aug-26 09:33N 44°06' E 009°50'0 0.0
2014-Aug-26 08:33N 44°06' E 009°50'0 0.0
2014-Aug-26 07:33N 44°06' E 009°50'0 0.0
2014-Aug-26 06:33N 44°06' E 009°50'0 0.0
2014-Aug-25 14:07N 44°06' E 009°50'0 0.0
2014-Aug-25 13:33N 44°06' E 009°50'0 0.0
2014-Aug-25 12:33N 44°06' E 009°50'0 0.0
2014-Aug-25 11:33N 44°06' E 009°50'0 0.0
2014-Aug-25 10:33N 44°06' E 009°50'0 0.0
2014-Aug-25 09:33N 44°06' E 009°50'0 0.0
2014-Aug-25 08:33N 44°06' E 009°50'0 0.0
2014-Aug-25 07:33N 44°06' E 009°50'0 0.2
2014-Aug-25 06:33N 44°06' E 009°50'  
2014-Aug-22 16:33N 44°03' E 009°51'  
Track history (hours):
 
Tides and Currents Weather Stations Pressure Air Temp Water Temp Dewpoint Dewpoint Depression Visibility Wind Speed Wind Dir Waves Ship Positions

Euro IV

Last reported at 2014-Sep-01 16:33 UTC. Time now 2014-Sep-01 21:11 UTC.
Position N 44°06' E 009°50'.

Length 25 m; draft 1.3 m.

Type: Passenger vessel. MMSI: 247131500.

Date/timePositionNaut miles runAvg speedWind from/ knotsBaromVisibWave heightAir tempDewpointWater temp
2014-Sep-01 16:33N 44°06' E 009°50'3 3.1
2014-Sep-01 15:34N 44°03' E 009°50'0 0.0
2014-Sep-01 14:33N 44°03' E 009°50'4 3.7
2014-Sep-01 13:34N 44°04' E 009°45'6 6.1
2014-Sep-01 12:33N 44°09' E 009°39'0 0.0
2014-Sep-01 11:33N 44°09' E 009°39'0 0.0
2014-Sep-01 10:33N 44°09' E 009°39'0 0.1
2014-Sep-01 09:33N 44°09' E 009°39'10 9.7
2014-Sep-01 08:33N 44°03' E 009°50'3 3.1
2014-Sep-01 07:33N 44°06' E 009°50'0 0.0
2014-Sep-01 06:33N 44°06' E 009°50'0 0.0
2014-Aug-31 17:19N 44°06' E 009°50'4 5.2
2014-Aug-31 16:33N 44°05' E 009°44'5 5.0
2014-Aug-31 15:33N 44°09' E 009°39'4 4.4
2014-Aug-31 14:32N 44°06' E 009°44'8 7.8
2014-Aug-31 13:33N 44°04' E 009°54'0 0.1
2014-Aug-31 12:33N 44°04' E 009°54'0 0.0
2014-Aug-31 11:33N 44°04' E 009°55'3 3.2
2014-Aug-31 10:33N 44°03' E 009°51'1 1.1
2014-Aug-31 09:34N 44°04' E 009°51'2 2.3
2014-Aug-31 08:33N 44°06' E 009°50'0 0.0
2014-Aug-31 07:33N 44°06' E 009°50'3 0.2
2014-Aug-30 16:34N 44°03' E 009°52'3 3.4
2014-Aug-30 15:33N 44°06' E 009°50'4 4.0
2014-Aug-30 14:33N 44°02' E 009°51'1 1.5
2014-Aug-30 13:34N 44°04' E 009°51'1 1.5
2014-Aug-30 12:33N 44°02' E 009°51'4 4.0
2014-Aug-30 11:33N 44°06' E 009°50'0 0.0
2014-Aug-30 10:33N 44°06' E 009°50'0 0.0
2014-Aug-30 09:33N 44°06' E 009°50'2 2.5
2014-Aug-30 08:34N 44°04' E 009°51'2 1.7
2014-Aug-30 07:33N 44°02' E 009°51'4 3.9
2014-Aug-30 06:33N 44°06' E 009°50'4 0.3
2014-Aug-29 16:33N 44°02' E 009°51'4 4.0
2014-Aug-29 15:34N 44°06' E 009°50'4 4.0
2014-Aug-29 14:33N 44°02' E 009°51'1 1.1
2014-Aug-29 13:34N 44°03' E 009°52'1 0.7
2014-Aug-29 12:34N 44°03' E 009°52'4 1.8
2014-Aug-29 10:23N 44°06' E 009°50'0 0.2
2014-Aug-29 09:34N 44°06' E 009°50'3 3.3
2014-Aug-29 08:34N 44°03' E 009°52'3 0.2
2014-Aug-28 16:33N 44°06' E 009°50'5 4.4
2014-Aug-28 15:26N 44°06' E 009°43'3 3.9
2014-Aug-28 14:33N 44°09' E 009°39'3 3.4
2014-Aug-28 13:33N 44°06' E 009°43'3 3.4
2014-Aug-28 12:33N 44°09' E 009°39'0 0.0
2014-Aug-28 11:33N 44°09' E 009°39'1 0.5
2014-Aug-28 10:33N 44°08' E 009°40'1 0.8
2014-Aug-28 09:27N 44°08' E 009°41'1 1.6
2014-Aug-28 08:33N 44°09' E 009°39'2 2.3
2014-Aug-28 07:27N 44°07' E 009°42'7 8.2
2014-Aug-28 06:33N 44°04' E 009°51'3 0.1
2014-Aug-26 10:19N 44°06' E 009°50'0 0.0
2014-Aug-26 09:33N 44°06' E 009°50'0 0.0
2014-Aug-26 08:33N 44°06' E 009°50'0 0.0
2014-Aug-26 07:33N 44°06' E 009°50'0 0.0
2014-Aug-26 06:33N 44°06' E 009°50'0 0.0
2014-Aug-25 14:07N 44°06' E 009°50'0 0.0
2014-Aug-25 13:33N 44°06' E 009°50'0 0.0
2014-Aug-25 12:33N 44°06' E 009°50'0 0.0
2014-Aug-25 11:33N 44°06' E 009°50'0 0.0
2014-Aug-25 10:33N 44°06' E 009°50'0 0.0
2014-Aug-25 09:33N 44°06' E 009°50'0 0.0
2014-Aug-25 08:33N 44°06' E 009°50'0 0.0
2014-Aug-25 07:33N 44°06' E 009°50'0 0.2
2014-Aug-25 06:33N 44°06' E 009°50'  
2014-Aug-22 16:33N 44°03' E 009°51'  

Dump ship's entire track history